Regional Weather Roundup
Issued by NWS

Home | Current Version | Previous Version | Text Only | Print | Product List | Glossary Off
Versions: 1 2 3 4 5 6 7 8 9 10 11 12 13 14 15 16 17 18 19 20 21 22 23 24 25 26 27 28 29 30 31 32 33 34 35 36 37 38 39 40 41 42 43 44 45 46 47 48 49 50

000
ASUS43 KIND 300259
RWRIN

WEATHER ROUNDUP FOR INDIANA
NATIONAL WEATHER SERVICE INDIANAPOLIS IN
1100 PM EDT SUN MAR 29 2015

NOTE: "FAIR" INDICATES FEW OR NO CLOUDS BELOW 12,000 FEET WITH NO
SIGNIFICANT WEATHER AND/OR OBSTRUCTIONS TO VISIBILITY.

* - STATION DOES NOT REPORT WEATHER SUCH AS PRECIPITATION OR FOG.

+ - STATION NOT QUALITY CONTROLLED BY THE NATIONAL WEATHER SERVICE.
    USE DATA WITH CAUTION...ESPECIALLY DEWPOINT AND RELATIVE
    HUMIDITY OBSERVATIONS.

INZ001>003-010>013-019-020-300400-
NORTHWEST INDIANA

CITY           SKY/WX    TMP DP  RH WIND       PRES   REMARKS
GARY /AIRPORT/ MOCLDY    46  32  57 W16       29.90R

$$

LMZ046-743>745-300400-
SOUTHERN LAKE MICHIGAN

STATION/POSITION TIME  TEMP WIND        PRES
                       AIR  DIR/SP/G
                 (UTC) (F)  (DEG/KT/KT) (MB)
BURNS HARBOR     0200   41  290/ 11/ 14 1012.5R
MICHIGAN CITY    0200   41  260/ 19/ 20   N/A

$$

INZ004-005-014>016-021>024-300400-
NORTH CENTRAL INDIANA

CITY           SKY/WX    TMP DP  RH WIND       PRES   REMARKS
GOSHEN         LGT RAIN  44  35  70 W15       29.85R
SOUTH BEND     CLOUDY    45  36  70 W18G24    29.87R

$$

INZ006>009-017-018-025>027-300400-
NORTHEAST INDIANA

CITY           SKY/WX    TMP DP  RH WIND       PRES   REMARKS
ANGOLA *+      CLOUDY    43  34  70 SW16      29.79F
FORT WAYNE     CLOUDY    42  35  76 SW24G30   29.85F

$$

INZ028-029-035-036-043>045-051>053-300400-
WEST CENTRAL INDIANA

CITY           SKY/WX    TMP DP  RH WIND       PRES   REMARKS
CRAWFORDSVL +  CLOUDY    42  36  76 MISG      29.94R
GREENCASTLE +  CLOUDY    45  36  70 SW9       29.96S
LAFAYETTE      CLOUDY    44  38  79 W10       29.92R
TERRE HAUTE    CLOUDY    48  41  76 SW14      29.98R

$$

INZ030>032-037>040-046>048-054>057-064-065-300400-
CENTRAL INDIANA

CITY           SKY/WX    TMP DP  RH WIND       PRES   REMARKS
GREENWOOD *+   CLOUDY    45  36  70 SW8       29.96S
INDIANAPOLIS   CLOUDY    45  38  76 SW15      29.93F
-EAGLE CREEK   CLOUDY    45  38  76 SW9       29.93F
KOKOMO *+        N/A     45  36  70 SW21G26   29.89F
MT COMFORT *+  CLOUDY    45  30  57 SW13      29.94S
SHELBYVILLE    CLOUDY    43  36  76 S8        29.95F

$$

INZ033-034-041-042-049-050-058-059-300400-
EAST CENTRAL INDIANA

CITY           SKY/WX    TMP DP  RH WIND       PRES   REMARKS
MUNCIE         CLOUDY    44  34  67 SW13G21   29.90F

$$

INZ060-061-067>069-081>083-085>088-300400-
SOUTHWEST INDIANA

CITY           SKY/WX    TMP DP  RH WIND       PRES   REMARKS
EVANSVILLE     CLOUDY    55  43  63 SW10      30.05R
HUNTINGBURG *+ CLOUDY    52  39  62 W8        30.04R

$$

INZ062-063-066-070>080-084-089>092-300400-
SOUTH CENTRAL AND SOUTHEAST INDIANA

CITY           SKY/WX    TMP DP  RH WIND       PRES   REMARKS
BLOOMINGTON    CLOUDY    47  41  80 SW10      29.98S
SEYMOUR +      CLOUDY    48  41  76 W9        30.00S

$$




USA.gov is the U.S. government's official web portal to all federal, state and local government web resources and services.